Regional Weather Roundup
Issued by NWS Upton, NY

Current Version | Previous Version | Text Only | Print | Product List | Glossary Off
Versions: 1 2 3 4 5 6 7 8 9 10 11 12 13 14 15 16 17 18 19 20 21 22 23 24 25 26 27 28 29 30 31 32 33 34 35 36 37 38 39 40 41 42 43 44 45 46 47 48 49 50
000 ASUS41 KOKX 291208 RWROKX REGIONAL WEATHER ROUNDUP NATIONAL WEATHER SERVICE NEW YORK NY 800 AM EDT WED JUL 29 2015 NOTE: "FAIR" INDICATES FEW OR NO CLOUDS BELOW 12,000 FEET WITH NO SIGNIFICANT WEATHER AND/OR OBSTRUCTIONS TO VISIBILITY. NYZ071-072-176-178-NJZ106-104-291300- NEW YORK CITY METRO AREA CITY SKY/WX TMP DP RH WIND PRES REMARKS CENTRAL PARK SUNNY 80 65 59 CALM 30.01R LAGUARDIA APRT PTSUNNY 81 65 58 NW3 29.97S KENNEDY INTL PTSUNNY 86 67 52 NW3 29.98S NEWARK/LIBERTY MOSUNNY 84 66 54 NW3 29.98S BRNX BOT. GARD N/A 81 66 61 CALM 29.99F TETERBORO SUNNY 81 65 58 CALM 29.97S $$ NYZ177-179-078>081-291300- LONG ISLAND NEW YORK CITY SKY/WX TMP DP RH WIND PRES REMARKS FARMINGDALE SUNNY 82 68 62 N6 29.98R ISLIP PTSUNNY 79 71 76 N6 29.97R SHIRLEY SUNNY 80 72 76 N5 29.98S WESTHAMPTON SUNNY 78 73 84 CALM 29.99S MONTAUK POINT N/A 77 71 82 CALM 29.99R $$ NYZ052-065-067-291300- HUDSON VALLEY CITY SKY/WX TMP DP RH WIND PRES REMARKS WHITE PLAINS SUNNY 78 68 71 NW7 29.99R NEWBURGH SUNNY 73 68 83 CALM 30.02R MONTGOMERY SUNNY 72 68 87 CALM 30.01S POUGHKEEPSIE SUNNY 73 67 81 CALM 29.99F ALBANY PTSUNNY 73 65 75 CALM 30.00S $$ NJZ001-105-106-008-010-013-015-019>022-104-291300- NEW JERSEY CITY SKY/WX TMP DP RH WIND PRES REMARKS NEWARK/LIBERTY MOSUNNY 84 66 54 NW3 29.98S TETERBORO SUNNY 81 65 58 CALM 29.97S CALDWELL SUNNY 76 66 71 CALM 29.99S MORRISTOWN CLOUDY 77 72 83 CALM 30.00R SOMERVILLE SUNNY 73 66 78 CALM 29.97F SUSSEX SUNNY 71 66 84 CALM 30.01F ANDOVER N/A 71 68 90 CALM 30.02F TRENTON SUNNY 78 68 71 CALM 29.99R MILLVILLE SUNNY 77 74 90 SW5 30.01R FOG ATLANTIC CITY SUNNY 77 73 87 SW5 30.01R WRIGHTSTOWN SUNNY 78 74 85 CALM 29.97S TOMS RIVER SUNNY 77 72 83 CALM 30.00R BELMAR SUNNY 75 66 73 NW5 29.99S $$ PAZ047>061-062-071-291300- EASTERN PENNSYLVANIA CITY SKY/WX TMP DP RH WIND PRES REMARKS PHILADELPHIA MOSUNNY 82 70 66 CALM 30.00R ALLENTOWN SUNNY 74 67 78 CALM 30.01S SCRANTON MOSUNNY 70 63 78 CALM 30.05R $$ CTZ002-004>006-009-010-012-RIZ004-006-007-MAZ004-011-015-291300- SOUTHERN NEW ENGLAND IN CT CITY SKY/WX TMP DP RH WIND PRES REMARKS BRADLEY INTL PTSUNNY 74 66 76 N3 29.98R HARTFORD SUNNY 73 68 84 CALM 29.97S DANBURY SUNNY 74 66 76 CALM 30.01S WTRBRY/OXFORD PTSUNNY 73 66 78 CALM 30.02R BRIDGEPORT SUNNY 77 70 79 E5 29.98R MERIDEN SUNNY 75 67 76 CALM 29.98S NEW HAVEN SUNNY 77 69 76 N3 29.98R CHESTER FAIR 79 66 65 NW5 29.99S GROTON SUNNY 78 69 73 N3 29.96S WILLIMANTIC SUNNY 72 66 81 CALM 29.99R IN RI CITY SKY/WX TMP DP RH WIND PRES REMARKS PROVIDENCE PTSUNNY 75 69 81 CALM 29.97S BLOCK ISLAND SUNNY 75 70 83 NW3 29.99R WESTERLY SUNNY 75 70 84 CALM 29.98R IN MA CITY SKY/WX TMP DP RH WIND PRES REMARKS BOSTON MOSUNNY 79 66 64 VRB3 29.96R WORCESTER SUNNY 77 63 61 W8 30.01S WESTFIELD MOSUNNY 70 67 90 CALM 29.99R PROVINCETOWN SUNNY 73 66 78 W3 29.96S NANTUCKET SUNNY 79 71 76 NW7 29.96R $$ ANZ330-335-338-340-345-350-353-355-291300- COASTAL MARINE OBSERVATIONS STATION/POSITION TIME SKY/WX TEMP WIND PRES VSBY WAVE AIR SEA DIR/SP/G HT/PER (UTC) (F) (DEG/KT/KT) (MB) (MI) (FT/S) NY HARB ENTRANCE 1150 76 76 290/ 6/ 8 1014.8 2/ 8 4S FIRE IS NOT AVBL 20S FIRE ISLAND 1150 75 74 240/ 4/ 4 1014.8 2/10 GREAT SOUTH BAY 1100 77 80 300/ 6/ 6 N/A 23SW MTP 1150 73 72 CALM / 2 1014.8 2/ 9 HUDSON CANYON NOT AVBL KINGS POINT 1100 76 71 40/ 2/ 3 1014.2 CENTRAL LI SOUND NOT AVBL EASTERN LI SOUND 1100 76 70 290/ 2/ 2 N/A ROBBINS REEF 1100 77 300/ 5/ 5 1013.9 $$ >>>>>>>>>>>>>>>>>>>>>>>>>>>> KEY <<<<<<<<<<<<<<<<<<<<<<<<<<< > < > SKY/WX - SKY CONDITION/PRESENT WEATHER < > TMP - TEMPERATURE IN FAHRENHEIT < > DP - DEWPOINT IN FAHRENHEIT < > RH - RELATIVE HUMIDITY IN PERCENT < > WIND - DIRECTION AND SPEED IN MPH < > PRES - MEAN SEA LEVEL PRESSURE IN INCHES OF HG < > WCI - WIND CHILL INDEX < > VSB - VISIBILITY IN MILES < > HX - HEAT INDEX < > TC - TEMPERATURE IN CELSIUS < > VRB - VARIABLE WIND DIRECTION < > < >>>>>>>>>>>>>>>>>>>>>>>>>>>> KEY <<<<<<<<<<<<<<<<<<<<<<<<<<<

USA.gov is the U.S. government's official web portal to all federal, state and local government web resources and services.